Edwards AFB North Base, CA

10:27 PM PDT on June 24, 2017 (GMT -0700)
Edwards AFB North Base

Weather History for K9L2 - January, 2013

Change the Weather History Date:

Sunday, January 27, 2013

  Actual Average (KEDW) Record (KEDW)
Temperature  
Mean Temperature 44 °F -  
Max Temperature 48 °F 58 °F 71 °F (2003)
Min Temperature 39 °F 30 °F 23 °F (2009)
Degree Days  
Heating Degree Days 22    
Moisture  
Dew Point 29 °F    
Average Humidity 56    
Maximum Humidity 80    
Minimum Humidity 39    
Precipitation  
Precipitation 0.00 in - - ()
Sea Level Pressure  
Sea Level Pressure 29.95 in    
Wind  
Wind Speed 15 mph (West)    
Max Wind Speed 28 mph    
Max Gust Speed 38 mph    
Visibility 10 miles    
Events      
Averages and records for this station are not official NWS values.
T = Trace of Precipitation, MM = Missing Value Source: NWS Daily Summary

Daily Weather History Graph

Daily Weather History Graph

Search for Another Location

Airport or City:

Trip Planner

Search our weather history database for the weather conditions in past years. The results will help you decide how hot, cold, wet, or windy it might be!

Date:

Astronomy

Jan. 27, 2013 Rise Set
Actual Time 6:53 AM PST 5:15 PM PST
Civil Twilight 6:26 AM PST 5:42 PM PST
Nautical Twilight 5:56 AM PST 6:12 PM PST
Astronomical Twilight 5:26 AM PST 6:42 PM PST
Moon 6:10 PM PST (1/27) 6:52 AM PST (1/27)
Length of Visible Light 11h 15m
Length of Day
10h 22m
Full, 100% of the Moon is Illuminated
Jan 27
Full
Feb 3
Last Quarter
Feb 9
New
Feb 17
First Quarter
Feb 25
Full

Hourly Weather History & Observations

Time (PST) Temp. Windchill Dew Point Humidity Pressure Visibility Wind Dir Wind Speed Gust Speed Precip Events Conditions
12:55 AM 46.9 °F - 37.0 °F 68% 29.92 in 10.0 mi WSW 9.2 mph - N/A   Clear
1:55 AM 46.0 °F 41.9 °F 37.0 °F 71% 29.92 in 10.0 mi WSW 8.1 mph - N/A   Partly Cloudy
2:55 AM 45.0 °F 39.7 °F 37.0 °F 74% 29.92 in 10.0 mi WSW 10.4 mph - N/A   Clear
3:55 AM 46.0 °F 40.2 °F 37.9 °F 73% 29.91 in 10.0 mi SW 12.7 mph - N/A   Clear
4:55 AM 43.0 °F 36.8 °F 37.0 °F 80% 29.92 in 10.0 mi West 11.5 mph - N/A   Clear
5:55 AM 44.1 °F 36.8 °F 35.1 °F 71% 29.93 in 10.0 mi WNW 16.1 mph - N/A   Mostly Cloudy
6:08 AM 44.6 °F 38.4 °F 35.6 °F 71% 29.93 in 10.0 mi West 12.7 mph - N/A   Mostly Cloudy
6:34 AM 44.6 °F 36.6 °F 33.8 °F 66% 29.93 in 10.0 mi West 19.6 mph 27.6 mph N/A   Mostly Cloudy
6:55 AM 43.0 °F 34.5 °F 33.1 °F 68% 29.95 in 10.0 mi West 19.6 mph 25.3 mph N/A   Mostly Cloudy
7:55 AM 43.0 °F 34.5 °F 30.9 °F 62% 29.96 in 10.0 mi WNW 19.6 mph 24.2 mph N/A   Partly Cloudy
8:15 AM - - - N/A% - - North - - N/A   Unknown
8:24 AM 44.6 °F 37.2 °F 30.2 °F 57% 29.95 in 10.0 mi WNW 17.3 mph - N/A   Mostly Cloudy
8:55 AM 45.0 °F 36.9 °F 30.0 °F 56% 29.97 in 10.0 mi West 20.7 mph 26.5 mph N/A   Mostly Cloudy
9:04 AM 46.4 °F 38.3 °F 30.2 °F 53% 29.95 in 10.0 mi WNW 23.0 mph 29.9 mph N/A   Overcast
9:55 AM 48.0 °F - 28.9 °F 48% 29.98 in 10.0 mi West 20.7 mph 26.5 mph N/A   Mostly Cloudy
10:55 AM 48.9 °F - 27.0 °F 43% 29.97 in 10.0 mi WNW 25.3 mph 29.9 mph N/A   Scattered Clouds
11:55 AM 48.9 °F - 25.0 °F 39% 29.95 in 10.0 mi West 26.5 mph 36.8 mph N/A   Mostly Cloudy
1:55 PM 48.0 °F - 25.0 °F 41% 29.94 in 10.0 mi WNW 27.6 mph 36.8 mph N/A   Clear
2:12 PM - - - N/A% - - North - - N/A   Unknown
2:55 PM 46.9 °F - 26.1 °F 44% 29.94 in 10.0 mi West 26.5 mph 35.7 mph N/A   Clear
3:30 PM - - - N/A% - - North - - N/A   Unknown
3:55 PM 46.0 °F 37.4 °F 24.1 °F 42% 29.93 in 10.0 mi West 25.3 mph 38.0 mph N/A   Clear
4:55 PM 44.1 °F 35.7 °F 24.1 °F 45% 29.94 in 10.0 mi West 20.7 mph 34.5 mph N/A   Overcast
5:55 PM 43.0 °F 34.0 °F 24.1 °F 47% 29.94 in 10.0 mi West 21.9 mph 28.8 mph N/A   Overcast
6:55 PM 42.1 °F 33.3 °F 24.1 °F 49% 29.94 in 10.0 mi West 19.6 mph 26.5 mph N/A   Overcast
7:55 PM 42.1 °F 33.6 °F 23.0 °F 47% 29.95 in 10.0 mi West 18.4 mph - N/A   Clear
8:55 PM 39.9 °F 37.8 °F 23.0 °F 51% 29.96 in 10.0 mi West 3.5 mph - N/A   Clear
9:55 PM 41.0 °F 33.9 °F 25.0 °F 53% 29.97 in 10.0 mi NW 12.7 mph - N/A   Clear
10:55 PM 42.1 °F 34.2 °F 25.0 °F 51% 29.98 in 10.0 mi NW 16.1 mph - N/A   Overcast
11:55 PM 43.0 °F 35.7 °F 24.1 °F 47% 29.99 in 10.0 mi WNW 15.0 mph - N/A   Overcast